Location: *
(41.3833°S, 177.8333°W)
Time: 08:54:26
(UTC+00:00)

Cosmos 1378 Rocket - Pass Details

Date: 01 April 2020
Orbit: 601 x 628 km, 82.5° (Epoch: 03 June)

Event Time Altitude Azimuth Distance (km) Brightness Sun altitude
Rises 16:16:45 0° 192° (SSW) 2,905 7.0 -21.6°
Reaches altitude 10° 16:19:01 10° 195° (SSW) 1,989 6.1 -21.1°
Maximum altitude 16:23:20 59° 274° (W) 707 3.5 -20.3°
Drops below altitude 10° 16:27:35 10° 353° (N) 1,951 5.9 -19.6°
Sets 16:29:48 0° 357° (N) 2,845 6.8 -19.2°
